MDT,Max TemperatureF,Mean TemperatureF,Min TemperatureF,Max Dew PointF,MeanDew PointF,Min DewpointF,Max Humidity, Mean Humidity, Min Humidity, Max Sea Level PressureIn, Mean Sea Level PressureIn, Min Sea Level PressureIn, Max VisibilityMiles, Mean VisibilityMiles, Min VisibilityMiles, Max Wind SpeedMPH, Mean Wind SpeedMPH, Max Gust SpeedMPH,PrecipitationIn, CloudCover, Events, WindDirDegrees
2013-3-1,45,29,13,27,19,8,85,63,41,30.44,30.36,30.31,10,10,10,23,9,29,0.00,4,,315
2013-3-2,56,43,29,29,27,24,85,59,32,30.31,30.17,29.93,10,10,10,24,10,29,0.00,0,,310
2013-3-3,57,43,28,29,26,19,75,54,33,29.88,29.68,29.55,10,10,10,36,20,44,0.00,2,,282
2013-3-4,31,23,14,22,13,5,88,65,42,30.40,30.04,29.79,10,9,2,30,19,44,T,5,Snow,319
2013-3-5,41,24,6,13,10,3,91,61,30,30.46,30.32,30.14,10,10,10,15,7,21,0.00,0,,140
2013-3-6,62,39,15,21,17,12,81,50,19,30.12,29.91,29.72,10,10,10,30,8,38,0.00,0,,237
2013-3-7,59,46,32,28,22,18,59,40,21,30.03,29.89,29.75,10,10,10,21,7,24,T,3,,304
2013-3-8,44,36,28,29,26,23,85,71,57,29.99,29.88,29.79,10,10,10,20,13,23,0.00,2,,122
2013-3-9,41,35,28,28,21,12,85,60,35,30.20,29.95,29.77,10,10,9,38,19,46,T,6,,331
2013-3-10,50,35,19,20,16,12,84,53,21,30.29,30.15,29.99,10,10,10,26,12,32,0.00,1,,318
2013-3-11,41,33,25,30,25,18,85,65,44,30.29,30.05,29.91,10,5,0,24,10,31,0.02,8,Fog-Snow,328
2013-3-12,41,31,21,25,20,17,84,65,45,30.38,30.30,30.20,10,9,2,17,8,21,T,5,Snow,269
2013-3-13,63,43,23,29,25,20,88,56,23,30.25,30.18,30.09,10,10,10,29,9,36,0.00,0,,284
2013-3-14,68,50,31,29,26,24,72,46,20,30.26,30.12,29.98,10,10,10,25,8,31,0.00,0,,297
2013-3-15,70,54,37,29,23,16,70,42,13,29.94,29.85,29.77,10,10,10,32,13,40,0.00,2,,330
2013-3-16,57,43,29,32,30,26,100,70,33,30.00,29.88,29.78,10,8,2,25,11,35,0.00,5,,112
2013-3-17,53,36,18,30,23,6,100,58,16,29.85,29.67,29.42,10,6,0,51,19,61,T,6,Fog-Snow,319
2013-3-18,43,28,12,18,10,5,80,54,27,30.03,29.95,29.80,10,10,10,24,9,35,0.00,3,,324
2013-3-19,43,29,15,25,17,3,88,54,20,30.43,30.19,29.96,10,9,2,33,13,43,T,4,Snow,313
2013-3-20,54,34,14,29,17,9,80,50,20,30.38,30.01,29.65,10,10,10,25,12,32,0.00,2,,174
2013-3-21,49,36,23,32,28,21,92,69,46,29.91,29.68,29.46,10,6,0,26,10,32,T,6,Fog-Rain-Snow,324
2013-3-22,36,28,19,22,19,14,96,70,44,30.09,29.91,29.81,10,7,2,26,10,30,0.04,6,Snow,339
2013-3-23,29,21,12,14,10,7,80,63,46,30.33,30.21,30.01,10,8,2,22,9,26,T,6,Snow,333
2013-3-24,26,18,9,12,9,1,92,64,36,30.39,30.25,30.09,10,8,2,29,12,33,T,7,Snow,337
2013-3-25,40,21,2,14,5,-1,88,54,19,30.45,30.32,30.19,10,9,2,18,7,24,T,2,Snow,322
2013-3-26,50,31,12,20,9,4,74,46,17,30.17,30.06,29.99,10,10,10,21,6,26,0.00,1,,329
2013-3-27,58,37,16,28,22,11,88,58,28,30.12,30.05,30.00,10,10,10,16,3,20,0.00,2,,159
2013-3-28,63,44,24,27,20,15,88,52,16,30.09,30.06,30.01,10,10,10,22,7,28,0.00,1,,319
2013-3-29,67,48,28,37,23,16,85,50,14,30.10,30.03,29.96,10,10,9,32,9,40,T,4,Rain,322
2013-3-30,50,40,30,44,34,28,100,81,62,30.23,30.16,30.07,10,8,3,24,7,29,0.35,6,Rain,305
2013-3-31,64,44,24,32,25,22,92,58,23,30.19,30.06,29.96,10,10,10,26,9,32,0.00,2,,352